Flag for U.S.A. Weather past 2 weeks in Springfield, Massachusetts, U.S.A.

Now
79 °F

Sunny.


Feels Like: 81 °F
Forecast: 64 / 84 °F
Wind: 10 mph from South

Location: Barnes Municipal Airport

Current Time: Aug 4, 2015 at 10:52:10 AM

Latest Report: Aug 4, 2015 at 9:53 AM


Visibility: 10 mi

Pressure: 29.82 "Hg

Humidity: 65%

Dew point: 66 °F

Location of SpringfieldLocation

Historic Weather in Springfield — Graph

°F

Springfield temperature yesterday

Maximum temperature yesterday: 89 °F (at 1:53 PM)
Minimum temperature yesterday: 62 °F (at 5:53 AM)
Average temperature yesterday: 76 °F

Past Weeks' High & Low Weather Summary

 TemperatureHumidityPressure
High93 °F (Jul 29, 2:53 PM)97% (Jul 27, 1:53 AM)30.03 "Hg (Jul 27, 1:53 AM)
Low53 °F (Jul 24, 4:53 AM)30% (Jul 31, 4:53 PM)29.56 "Hg (Jul 21, 4:53 PM)
Average74 °F69%29.85 "Hg
* Reported Jul 20 9:53 AM — Aug 4 9:53 AM, Springfield, Weather by CustomWeather, © 2015

Note: Actual official high and low records may vary slightly from our data, if they occured in-between our weather recording intervals... More about our weather records

Advertising

Springfield weather history for previous 24 hours

 ConditionsComfort  
Time TempWeatherWind HumidityBarometerVisibility
9:53 AM
Tue, Aug 4
79 °FSunny.10 mph65%29.82 "Hg10 mi
8:53 AM75 °FPassing clouds.5 mph71%29.83 "Hg10 mi
7:53 AM74 °FSunny.5 mph71%29.82 "Hg10 mi
6:53 AM69 °FSunny.5 mph90%29.80 "Hg10 mi
5:53 AM68 °FLight rain. Mostly cloudy.No wind90%29.83 "Hg10 mi
4:53 AM68 °FMostly cloudy.No wind93%29.82 "Hg9 mi
3:53 AM68 °FPassing clouds.No wind93%29.80 "Hg8 mi
2:53 AM69 °FPassing clouds.No wind93%29.80 "Hg8 mi
1:53 AM69 °FClear.No wind90%29.80 "Hg9 mi
12:53 AM70 °FClear.No wind87%29.79 "Hg10 mi
11:53 PM
Mon, Aug 3
73 °FClear.5 mph79%29.79 "Hg10 mi
10:53 PM74 °FClear.3 mph76%29.78 "Hg10 mi
9:53 PM76 °FClear.6 mph69%29.78 "Hg10 mi
8:53 PM78 °FSunny.8 mph64%29.76 "Hg10 mi
7:53 PM80 °FScattered clouds.9 mph58%29.75 "Hg10 mi
6:53 PM83 °FSunny.12 mph50%29.72 "Hg10 mi
5:53 PM84 °FSunny.13 mph49%29.73 "Hg10 mi
4:53 PM86 °FScattered clouds.13 mph45%29.73 "Hg10 mi
3:53 PM86 °FScattered clouds.20 mph43%29.73 "Hg10 mi
2:53 PM89 °FScattered clouds.16 mph39%29.74 "Hg10 mi
1:53 PM89 °FSunny.21 mph38%29.77 "Hg10 mi
12:53 PM88 °FSunny.22 mph40%29.77 "Hg10 mi
11:53 AM86 °FSunny.14 mph48%29.80 "Hg10 mi
10:53 AM83 °FSunny.12 mph55%29.80 "Hg10 mi
Weather by CustomWeather, © 2015

See weather overviewHow to use our weather pages